QPF
0.00 0.00 0.00 0.00 0.00 0.00 0.00 0.00 0.00 0.00 0.00 0.00 0.00 0.00 0.00 0.00 0.00 0.00 0.00 0.00 0.01 0.02 0.03 0.06 0.11 0.10 0.08 0.06 0.07 0.07 0.07 0.09 0.12 0.10 0.09 0.09 0.10 0.12 0.15 0.17 0.13 0.13 0.13 0.10 0.10 0.08 0.08 0.08 0.08
0.01 0.01 0.01 0.00 0.00 0.00 0.00 0.00 0.00 0.00 0.00 0.00 0.00 0.00 0.00 0.00 0.00 0.00 0.00 0.01 0.01 0.01 0.01 0.04 0.10 0.08 0.05 0.04 0.05 0.09 0.08 0.08 0.09 0.08 0.07 0.08 0.09 0.12 0.15 0.14 0.11 0.12 0.07 0.06 0.06 0.07 0.08 0.07 0.07
0.00 0.00 0.01 0.01 0.00 0.00 0.00 0.00 0.00 0.00 0.00 0.00 0.00 0.00 0.00 0.00 0.00 0.00 0.00 0.00 0.01 0.00 0.00 0.02 0.07 0.08 0.05 0.03 0.05 0.07 0.06 0.07 0.09 0.08 0.07 0.06 0.06 0.06 0.08 0.07 0.08 0.07 0.05 0.05 0.06 0.07 0.07 0.06 0.06
0.00 0.00 0.00 0.00 0.00 0.00 0.00 0.00 0.00 0.00 0.00 0.00 0.00 0.00 0.00 0.00 0.00 0.00 0.00 0.00 0.01 0.01 0.01 0.02 0.04 0.06 0.06 0.04 0.04 0.05 0.05 0.05 0.08 0.12 0.10 0.07 0.06 0.05 0.05 0.05 0.04 0.04 0.04 0.05 0.05 0.05 0.05 0.05 0.05
0.00 0.00 0.00 0.00 0.00 0.00 0.00 0.00 0.00 0.00 0.00 0.00 0.00 0.00 0.01 0.01 0.00 0.00 0.00 0.00 0.01 0.01 0.01 0.02 0.03 0.04 0.05 0.04 0.04 0.03 0.03 0.04 0.07 0.12 0.11 0.08 0.07 0.05 0.06 0.05 0.03 0.04 0.05 0.05 0.05 0.04 0.04 0.05 0.05
0.00 0.00 0.00 0.00 0.00 0.00 0.00 0.00 0.00 0.00 0.00 0.00 0.00 0.00 0.01 0.03 0.02 0.01 0.00 0.00 0.00 0.01 0.01 0.02 0.03 0.03 0.04 0.03 0.03 0.03 0.03 0.03 0.05 0.08 0.08 0.08 0.06 0.05 0.06 0.04 0.03 0.04 0.05 0.05 0.05 0.04 0.04 0.05 0.05
0.00 0.00 0.00 0.00 0.00 0.00 0.00 0.00 0.00 0.00 0.00 0.00 0.00 0.00 0.01 0.03 0.03 0.01 0.01 0.00 0.00 0.00 0.01 0.02 0.03 0.05 0.05 0.06 0.04 0.03 0.02 0.02 0.03 0.03 0.04 0.07 0.06 0.06 0.06 0.05 0.05 0.06 0.05 0.05 0.04 0.03 0.02 0.03 0.04
0.00 0.00 0.00 0.00 0.00 0.00 0.00 0.00 0.00 0.00 0.00 0.00 0.00 0.00 0.00 0.01 0.02 0.02 0.01 0.01 0.01 0.02 0.01 0.01 0.01 0.02 0.04 0.07 0.06 0.04 0.03 0.02 0.03 0.03 0.04 0.06 0.07 0.08 0.08 0.06 0.07 0.07 0.06 0.05 0.04 0.04 0.03 0.03 0.03
0.00 0.00 0.00 0.00 0.00 0.00 0.00 0.00 0.00 0.00 0.00 0.00 0.00 0.00 0.00 0.00 0.01 0.01 0.01 0.02 0.02 0.02 0.01 0.01 0.01 0.01 0.01 0.03 0.04 0.05 0.03 0.04 0.03 0.03 0.05 0.04 0.07 0.10 0.10 0.07 0.06 0.05 0.07 0.08 0.06 0.06 0.05 0.03 0.04
0.00 0.00 0.00 0.00 0.00 0.00 0.00 0.00 0.00 0.00 0.00 0.00 0.00 0.00 0.00 0.00 0.01 0.01 0.01 0.01 0.01 0.01 0.01 0.01 0.01 0.01 0.01 0.01 0.02 0.02 0.01 0.01 0.01 0.01 0.02 0.02 0.05 0.09 0.08 0.08 0.05 0.05 0.09 0.08 0.06 0.05 0.05 0.02 0.02
0.00 0.00 0.00 0.00 0.00 0.00 0.00 0.00 0.00 0.00 0.00 0.00 0.00 0.00 0.00 0.00 0.00 0.00 0.00 0.00 0.00 0.01 0.01 0.01 0.00 0.01 0.01 0.00 0.00 0.01 0.01 0.01 0.01 0.01 0.01 0.02 0.03 0.06 0.07 0.05 0.03 0.03 0.05 0.03 0.03 0.03 0.01 0.01 0.01
0.00 0.00 0.00 0.00 0.00 0.00 0.00 0.00 0.00 0.00 0.00 0.00 0.00 0.00 0.00 0.00 0.00 0.00 0.01 0.00 0.00 0.00 0.01 0.01 0.01 0.01 0.01 0.01 0.00 0.00 0.01 0.01 0.01 0.01 0.01 0.01 0.01 0.03 0.04 0.02 0.01 0.01 0.01 0.01 0.01 0.01 0.02 0.02 0.03
0.00 0.00 0.00 0.00 0.00 0.00 0.00 0.00 0.00 0.00 0.00 0.00 0.00 0.00 0.00 0.00 0.00 0.00 0.00 0.00 0.00 0.01 0.01 0.02 0.02 0.02 0.01 0.01 0.01 0.01 0.01 0.02 0.01 0.01 0.01 0.00 0.00 0.01 0.01 0.01 0.00 0.01 0.01 0.01 0.01 0.01 0.02 0.02 0.03
0.00 0.00 0.00 0.00 0.00 0.00 0.00 0.00 0.00 0.00 0.00 0.00 0.00 0.00 0.00 0.00 0.00 0.00 0.00 0.00 0.00 0.01 0.01 0.02 0.02 0.01 0.01 0.01 0.01 0.01 0.02 0.03 0.02 0.02 0.02 0.02 0.01 0.01 0.01 0.01 0.00 0.01 0.01 0.00 0.01 0.02 0.02 0.02 0.02
0.00 0.00 0.00 0.00 0.00 0.00 0.00 0.00 0.00 0.00 0.00 0.00 0.00 0.00 0.00 0.00 0.00 0.00 0.00 0.00 0.00 0.01 0.01 0.02 0.01 0.01 0.01 0.01 0.01 0.01 0.03 0.04 0.03 0.04 0.03 0.03 0.02 0.03 0.03 0.02 0.01 0.01 0.01 0.01 0.01 0.02 0.02 0.03 0.04
0.00 0.00 0.00 0.00 0.00 0.00 0.00 0.00 0.00 0.00 0.00 0.00 0.00 0.00 0.00 0.00 0.00 0.00 0.00 0.00 0.00 0.00 0.00 0.01 0.01 0.02 0.02 0.01 0.01 0.02 0.04 0.03 0.02 0.03 0.04 0.03 0.03 0.05 0.04 0.03 0.02 0.01 0.01 0.01 0.02 0.03 0.03 0.04 0.04
0.00 0.00 0.00 0.00 0.00 0.00 0.00 0.00 0.00 0.00 0.00 0.00 0.00 0.00 0.00 0.00 0.00 0.00 0.00 0.00 0.00 0.01 0.00 0.01 0.01 0.01 0.02 0.01 0.02 0.04 0.05 0.03 0.02 0.03 0.03 0.03 0.04 0.04 0.04 0.04 0.02 0.02 0.02 0.02 0.03 0.04 0.03 0.03 0.03
0.00 0.00 0.00 0.00 0.00 0.00 0.00 0.00 0.00 0.00 0.00 0.00 0.00 0.00 0.00 0.00 0.01 0.01 0.01 0.01 0.01 0.01 0.02 0.02 0.01 0.02 0.02 0.02 0.02 0.05 0.06 0.05 0.04 0.04 0.04 0.04 0.03 0.04 0.04 0.04 0.03 0.02 0.02 0.02 0.02 0.03 0.03 0.03 0.03
0.00 0.00 0.00 0.00 0.00 0.00 0.00 0.00 0.00 0.00 0.00 0.00 0.00 0.00 0.00 0.00 0.01 0.01 0.01 0.01 0.01 0.03 0.06 0.03 0.02 0.02 0.02 0.01 0.02 0.04 0.06 0.06 0.05 0.05 0.04 0.03 0.04 0.04 0.04 0.04 0.03 0.03 0.03 0.03 0.02 0.02 0.04 0.04 0.05
0.00 0.00 0.00 0.00 0.00 0.00 0.00 0.00 0.00 0.00 0.00 0.00 0.00 0.00 0.00 0.00 0.00 0.00 0.01 0.01 0.01 0.03 0.03 0.02 0.02 0.03 0.02 0.02 0.03 0.04 0.05 0.07 0.07 0.06 0.04 0.03 0.03 0.02 0.02 0.02 0.03 0.03 0.03 0.02 0.03 0.03 0.03 0.04 0.05
0.00 0.00 0.00 0.00 0.00 0.00 0.00 0.00 0.00 0.00 0.00 0.00 0.00 0.00 0.00 0.00 0.00 0.00 0.00 0.01 0.01 0.01 0.02 0.02 0.03 0.04 0.03 0.04 0.04 0.03 0.04 0.05 0.05 0.05 0.04 0.04 0.04 0.03 0.02 0.01 0.02 0.04 0.04 0.02 0.02 0.03 0.02 0.02 0.05
0.00 0.00 0.00 0.00 0.00 0.00 0.00 0.00 0.00 0.00 0.00 0.00 0.00 0.00 0.00 0.00 0.00 0.00 0.00 0.00 0.00 0.01 0.02 0.04 0.03 0.03 0.04 0.05 0.03 0.02 0.03 0.04 0.04 0.05 0.05 0.06 0.05 0.05 0.03 0.04 0.04 0.04 0.03 0.02 0.02 0.03 0.03 0.03 0.03
0.00 0.00 0.00 0.00 0.00 0.00 0.00 0.00 0.00 0.00 0.00 0.00 0.00 0.00 0.00 0.00 0.00 0.00 0.00 0.00 0.00 0.01 0.02 0.03 0.02 0.02 0.03 0.04 0.03 0.04 0.03 0.03 0.03 0.04 0.05 0.06 0.06 0.07 0.05 0.06 0.06 0.05 0.05 0.04 0.03 0.03 0.03 0.03 0.04
0.00 0.00 0.00 0.00 0.00 0.00 0.00 0.00 0.00 0.00 0.00 0.00 0.00 0.00 0.00 0.00 0.00 0.00 0.00 0.00 0.00 0.00 0.01 0.02 0.01 0.01 0.01 0.01 0.02 0.03 0.03 0.03 0.03 0.04 0.03 0.04 0.06 0.08 0.08 0.08 0.08 0.08 0.06 0.06 0.06 0.05 0.05 0.05 0.05
0.00 0.00 0.00 0.00 0.00 0.00 0.00 0.00 0.00 0.00 0.00 0.00 0.00 0.00 0.00 0.00 0.00 0.00 0.00 0.00 0.00 0.00 0.01 0.01 0.01 0.00 0.00 0.00 0.00 0.01 0.02 0.02 0.03 0.03 0.03 0.03 0.04 0.07 0.10 0.10 0.08 0.07 0.07 0.07 0.07 0.07 0.07 0.06 0.05
0.00 0.00 0.00 0.00 0.00 0.00 0.00 0.00 0.00 0.00 0.00 0.00 0.00 0.00 0.00 0.00 0.00 0.00 0.00 0.00 0.00 0.00 0.00 0.00 0.00 0.00 0.00 0.00 0.00 0.00 0.01 0.02 0.02 0.04 0.04 0.03 0.04 0.06 0.08 0.07 0.06 0.06 0.07 0.07 0.06 0.07 0.07 0.05 0.04
0.00 0.00 0.00 0.00 0.00 0.00 0.00 0.00 0.00 0.00 0.00 0.00 0.00 0.00 0.00 0.00 0.01 0.01 0.00 0.00 0.00 0.00 0.00 0.00 0.00 0.00 0.00 0.00 0.00 0.00 0.00 0.01 0.02 0.03 0.03 0.03 0.04 0.04 0.05 0.05 0.05 0.05 0.04 0.05 0.06 0.06 0.05 0.05 0.06
0.00 0.00 0.00 0.00 0.00 0.00 0.00 0.00 0.00 0.00 0.00 0.00 0.00 0.00 0.00 0.00 0.01 0.01 0.01 0.00 0.00 0.00 0.00 0.00 0.00 0.00 0.00 0.00 0.00 0.00 0.00 0.00 0.01 0.02 0.02 0.02 0.03 0.03 0.03 0.04 0.04 0.05 0.04 0.04 0.05 0.05 0.05 0.06 0.07
0.00 0.00 0.00 0.00 0.00 0.00 0.00 0.00 0.00 0.00 0.00 0.00 0.00 0.00 0.00 0.00 0.00 0.01 0.01 0.01 0.01 0.01 0.01 0.00 0.00 0.00 0.00 0.00 0.00 0.00 0.00 0.00 0.00 0.01 0.01 0.02 0.02 0.03 0.04 0.05 0.06 0.06 0.05 0.04 0.04 0.05 0.05 0.05 0.05
0.00 0.00 0.00 0.00 0.00 0.00 0.00 0.00 0.00 0.00 0.00 0.00 0.00 0.00 0.00 0.00 0.00 0.01 0.01 0.02 0.03 0.03 0.02 0.01 0.01 0.01 0.01 0.01 0.00 0.00 0.00 0.00 0.00 0.00 0.01 0.03 0.02 0.03 0.04 0.06 0.07 0.07 0.06 0.05 0.05 0.05 0.04 0.03 0.04
MSLP
1005.95 1007.16 1008.55 1009.93 1011.15 1012.06 1012.62 1012.82 1012.76 1012.56 1012.35 1012.23 1012.25 1012.42 1012.68 1012.95 1013.13 1013.17 1013.04 1012.79 1012.47 1012.17 1011.96 1011.87 1011.94 1012.12 1012.35 1012.58 1012.76 1012.85 1012.86 1012.82 1012.77 1012.76 1012.82 1012.97 1013.20 1013.47 1013.75 1014.01 1014.22 1014.38 1014.50 1014.59 1014.68 1014.78 1014.91 1015.07 1015.25
1006.52 1007.96 1009.50 1010.94 1012.10 1012.87 1013.21 1013.15 1012.82 1012.36 1011.93 1011.64 1011.57 1011.69 1011.95 1012.26 1012.52 1012.66 1012.64 1012.51 1012.31 1012.13 1012.02 1012.03 1012.17 1012.40 1012.66 1012.89 1013.06 1013.13 1013.12 1013.06 1013.01 1013.00 1013.08 1013.24 1013.48 1013.75 1014.03 1014.27 1014.45 1014.57 1014.65 1014.70 1014.75 1014.82 1014.93 1015.08 1015.27
1007.25 1008.88 1010.51 1011.95 1013.02 1013.63 1013.76 1013.47 1012.91 1012.25 1011.66 1011.27 1011.13 1011.23 1011.50 1011.84 1012.15 1012.35 1012.42 1012.37 1012.26 1012.16 1012.12 1012.20 1012.38 1012.64 1012.91 1013.14 1013.30 1013.36 1013.34 1013.28 1013.24 1013.25 1013.33 1013.51 1013.74 1014.01 1014.26 1014.47 1014.61 1014.70 1014.75 1014.78 1014.81 1014.89 1015.00 1015.16 1015.36
1008.07 1009.80 1011.45 1012.83 1013.78 1014.23 1014.17 1013.71 1013.00 1012.22 1011.56 1011.12 1010.96 1011.06 1011.34 1011.70 1012.03 1012.26 1012.36 1012.35 1012.29 1012.24 1012.25 1012.36 1012.57 1012.83 1013.09 1013.31 1013.46 1013.52 1013.51 1013.47 1013.44 1013.48 1013.58 1013.76 1013.98 1014.22 1014.44 1014.61 1014.72 1014.78 1014.81 1014.85 1014.90 1015.00 1015.14 1015.33 1015.56
1008.85 1010.59 1012.19 1013.45 1014.25 1014.54 1014.34 1013.78 1013.01 1012.22 1011.56 1011.16 1011.03 1011.15 1011.45 1011.80 1012.13 1012.35 1012.45 1012.45 1012.41 1012.37 1012.40 1012.52 1012.71 1012.96 1013.21 1013.41 1013.55 1013.61 1013.62 1013.61 1013.62 1013.68 1013.80 1013.98 1014.18 1014.38 1014.56 1014.68 1014.76 1014.81 1014.85 1014.92 1015.02 1015.17 1015.37 1015.60 1015.86
1009.50 1011.14 1012.59 1013.69 1014.32 1014.47 1014.20 1013.61 1012.87 1012.16 1011.61 1011.30 1011.25 1011.42 1011.73 1012.08 1012.38 1012.57 1012.64 1012.63 1012.57 1012.54 1012.56 1012.66 1012.85 1013.06 1013.28 1013.47 1013.59 1013.66 1013.69 1013.71 1013.76 1013.85 1013.99 1014.15 1014.33 1014.49 1014.61 1014.69 1014.74 1014.79 1014.86 1014.98 1015.15 1015.38 1015.64 1015.93 1016.22
1009.90 1011.37 1012.62 1013.50 1013.97 1014.02 1013.72 1013.19 1012.57 1012.01 1011.63 1011.47 1011.53 1011.77 1012.09 1012.42 1012.68 1012.83 1012.87 1012.83 1012.76 1012.72 1012.74 1012.83 1012.98 1013.17 1013.35 1013.50 1013.61 1013.68 1013.73 1013.79 1013.87 1013.99 1014.14 1014.29 1014.43 1014.54 1014.61 1014.65 1014.68 1014.74 1014.84 1015.02 1015.26 1015.57 1015.91 1016.25 1016.56
1010.05 1011.29 1012.29 1012.96 1013.28 1013.26 1012.98 1012.56 1012.11 1011.76 1011.58 1011.59 1011.78 1012.08 1012.42 1012.73 1012.95 1013.06 1013.07 1013.02 1012.95 1012.91 1012.93 1013.01 1013.14 1013.29 1013.44 1013.56 1013.64 1013.71 1013.78 1013.86 1013.97 1014.11 1014.27 1014.41 1014.52 1014.58 1014.60 1014.60 1014.61 1014.67 1014.80 1015.04 1015.35 1015.73 1016.13 1016.51 1016.85
1009.98 1010.97 1011.72 1012.19 1012.37 1012.32 1012.10 1011.82 1011.58 1011.45 1011.48 1011.66 1011.96 1012.31 1012.66 1012.94 1013.12 1013.20 1013.20 1013.15 1013.10 1013.09 1013.13 1013.21 1013.33 1013.45 1013.56 1013.65 1013.71 1013.77 1013.84 1013.94 1014.08 1014.24 1014.40 1014.53 1014.61 1014.63 1014.61 1014.57 1014.56 1014.62 1014.79 1015.06 1015.42 1015.85 1016.30 1016.71 1017.06
1009.78 1010.53 1011.06 1011.35 1011.44 1011.38 1011.24 1011.12 1011.07 1011.15 1011.35 1011.66 1012.04 1012.42 1012.76 1013.01 1013.16 1013.22 1013.22 1013.20 1013.20 1013.24 1013.31 1013.42 1013.54 1013.64 1013.72 1013.77 1013.81 1013.86 1013.93 1014.05 1014.20 1014.38 1014.55 1014.68 1014.75 1014.75 1014.70 1014.64 1014.61 1014.67 1014.84 1015.13 1015.52 1015.97 1016.44 1016.86 1017.20
1009.58 1010.13 1010.47 1010.63 1010.65 1010.60 1010.56 1010.57 1010.68 1010.91 1011.25 1011.64 1012.05 1012.43 1012.73 1012.94 1013.06 1013.11 1013.13 1013.16 1013.22 1013.33 1013.46 1013.60 1013.74 1013.84 1013.89 1013.92 1013.93 1013.97 1014.04 1014.17 1014.34 1014.54 1014.74 1014.88 1014.95 1014.96 1014.90 1014.83 1014.80 1014.84 1015.01 1015.29 1015.68 1016.13 1016.59 1017.00 1017.33
1009.50 1009.89 1010.10 1010.16 1010.14 1010.12 1010.14 1010.26 1010.48 1010.81 1011.21 1011.63 1012.02 1012.35 1012.60 1012.75 1012.84 1012.90 1012.95 1013.04 1013.17 1013.34 1013.54 1013.73 1013.89 1013.99 1014.05 1014.06 1014.06 1014.09 1014.16 1014.30 1014.50 1014.72 1014.95 1015.12 1015.23 1015.25 1015.22 1015.16 1015.13 1015.18 1015.33 1015.59 1015.95 1016.37 1016.80 1017.18 1017.49
1009.62 1009.91 1010.01 1010.01 1009.97 1009.97 1010.04 1010.22 1010.50 1010.86 1011.26 1011.65 1011.99 1012.24 1012.42 1012.52 1012.58 1012.63 1012.72 1012.86 1013.05 1013.29 1013.55 1013.79 1013.98 1014.10 1014.16 1014.17 1014.17 1014.20 1014.28 1014.43 1014.65 1014.91 1015.16 1015.38 1015.53 1015.61 1015.62 1015.60 1015.59 1015.64 1015.78 1016.02 1016.34 1016.71 1017.09 1017.42 1017.69
1009.98 1010.18 1010.21 1010.17 1010.12 1010.12 1010.22 1010.42 1010.71 1011.05 1011.40 1011.72 1011.97 1012.14 1012.24 1012.29 1012.32 1012.38 1012.49 1012.67 1012.91 1013.20 1013.50 1013.78 1013.99 1014.14 1014.22 1014.25 1014.27 1014.30 1014.39 1014.56 1014.79 1015.06 1015.35 1015.61 1015.82 1015.96 1016.04 1016.08 1016.11 1016.18 1016.32 1016.52 1016.80 1017.11 1017.43 1017.72 1017.95
1010.50 1010.63 1010.61 1010.54 1010.48 1010.49 1010.59 1010.78 1011.04 1011.32 1011.60 1011.83 1011.98 1012.07 1012.11 1012.11 1012.13 1012.19 1012.32 1012.52 1012.79 1013.10 1013.42 1013.72 1013.96 1014.13 1014.24 1014.30 1014.34 1014.40 1014.50 1014.67 1014.90 1015.18 1015.48 1015.77 1016.03 1016.24 1016.39 1016.50 1016.59 1016.70 1016.84 1017.03 1017.26 1017.52 1017.78 1018.02 1018.21
1011.09 1011.14 1011.09 1011.00 1010.94 1010.95 1011.04 1011.20 1011.41 1011.62 1011.81 1011.94 1012.02 1012.04 1012.03 1012.02 1012.03 1012.10 1012.24 1012.45 1012.72 1013.03 1013.35 1013.65 1013.91 1014.11 1014.25 1014.35 1014.43 1014.51 1014.62 1014.77 1014.99 1015.25 1015.54 1015.84 1016.13 1016.39 1016.61 1016.79 1016.95 1017.11 1017.27 1017.46 1017.66 1017.87 1018.08 1018.27 1018.43
1011.61 1011.61 1011.53 1011.44 1011.40 1011.42 1011.50 1011.62 1011.77 1011.89 1011.99 1012.04 1012.04 1012.03 1012.00 1012.00 1012.03 1012.12 1012.26 1012.47 1012.73 1013.01 1013.31 1013.60 1013.86 1014.09 1014.27 1014.42 1014.54 1014.64 1014.76 1014.89 1015.07 1015.28 1015.53 1015.80 1016.09 1016.38 1016.65 1016.91 1017.14 1017.35 1017.55 1017.74 1017.93 1018.11 1018.28 1018.44 1018.57
1011.96 1011.93 1011.86 1011.81 1011.80 1011.85 1011.92 1012.01 1012.08 1012.12 1012.11 1012.08 1012.03 1011.99 1011.98 1012.00 1012.08 1012.20 1012.37 1012.57 1012.80 1013.05 1013.31 1013.58 1013.84 1014.09 1014.31 1014.51 1014.67 1014.81 1014.93 1015.04 1015.15 1015.29 1015.47 1015.69 1015.95 1016.24 1016.54 1016.85 1017.14 1017.41 1017.66 1017.87 1018.05 1018.21 1018.36 1018.49 1018.61
1012.09 1012.07 1012.06 1012.09 1012.16 1012.25 1012.34 1012.38 1012.36 1012.29 1012.17 1012.05 1011.94 1011.89 1011.90 1011.97 1012.11 1012.29 1012.48 1012.69 1012.90 1013.12 1013.34 1013.57 1013.83 1014.10 1014.36 1014.61 1014.83 1015.00 1015.12 1015.20 1015.26 1015.31 1015.40 1015.54 1015.74 1016.00 1016.31 1016.66 1017.00 1017.33 1017.61 1017.85 1018.04 1018.20 1018.33 1018.45 1018.56
1012.01 1012.07 1012.19 1012.35 1012.54 1012.70 1012.79 1012.77 1012.65 1012.43 1012.18 1011.93 1011.76 1011.67 1011.71 1011.84 1012.05 1012.30 1012.55 1012.77 1012.98 1013.16 1013.34 1013.55 1013.80 1014.08 1014.39 1014.70 1014.97 1015.18 1015.32 1015.37 1015.37 1015.35 1015.34 1015.39 1015.52 1015.74 1016.04 1016.40 1016.78 1017.15 1017.48 1017.74 1017.95 1018.10 1018.23 1018.34 1018.45
1011.79 1012.01 1012.32 1012.68 1013.01 1013.25 1013.34 1013.25 1012.98 1012.58 1012.14 1011.73 1011.44 1011.31 1011.35 1011.54 1011.84 1012.17 1012.48 1012.75 1012.96 1013.13 1013.28 1013.46 1013.70 1014.00 1014.34 1014.70 1015.04 1015.30 1015.46 1015.52 1015.48 1015.39 1015.31 1015.27 1015.33 1015.50 1015.78 1016.14 1016.54 1016.94 1017.30 1017.59 1017.81 1017.97 1018.09 1018.19 1018.30
1011.55 1011.99 1012.56 1013.14 1013.65 1013.97 1014.04 1013.83 1013.37 1012.74 1012.07 1011.46 1011.02 1010.81 1010.83 1011.06 1011.43 1011.86 1012.26 1012.58 1012.82 1012.99 1013.12 1013.28 1013.50 1013.81 1014.18 1014.59 1014.98 1015.30 1015.51 1015.59 1015.54 1015.42 1015.29 1015.19 1015.19 1015.31 1015.56 1015.92 1016.32 1016.74 1017.12 1017.42 1017.65 1017.81 1017.93 1018.03 1018.14
1011.38 1012.10 1012.94 1013.77 1014.45 1014.84 1014.86 1014.51 1013.83 1012.93 1011.98 1011.13 1010.50 1010.18 1010.17 1010.43 1010.88 1011.39 1011.88 1012.28 1012.56 1012.74 1012.87 1013.00 1013.20 1013.50 1013.89 1014.33 1014.78 1015.16 1015.42 1015.54 1015.52 1015.40 1015.25 1015.12 1015.09 1015.17 1015.39 1015.73 1016.13 1016.55 1016.93 1017.25 1017.48 1017.64 1017.75 1017.84 1017.95
1011.35 1012.36 1013.48 1014.53 1015.35 1015.78 1015.74 1015.21 1014.28 1013.10 1011.86 1010.76 1009.94 1009.49 1009.44 1009.72 1010.22 1010.83 1011.42 1011.89 1012.22 1012.42 1012.54 1012.65 1012.82 1013.10 1013.48 1013.94 1014.43 1014.86 1015.18 1015.36 1015.39 1015.30 1015.16 1015.03 1014.97 1015.04 1015.23 1015.55 1015.94 1016.34 1016.72 1017.03 1017.26 1017.41 1017.52 1017.61 1017.72
1011.46 1012.72 1014.08 1015.32 1016.23 1016.67 1016.53 1015.83 1014.67 1013.22 1011.72 1010.38 1009.38 1008.82 1008.71 1009.00 1009.57 1010.26 1010.93 1011.48 1011.85 1012.07 1012.18 1012.26 1012.40 1012.64 1013.00 1013.46 1013.96 1014.43 1014.80 1015.04 1015.13 1015.09 1014.98 1014.87 1014.82 1014.87 1015.05 1015.34 1015.70 1016.09 1016.45 1016.75 1016.97 1017.12 1017.23 1017.32 1017.44
1011.68 1013.12 1014.63 1015.98 1016.94 1017.35 1017.12 1016.26 1014.90 1013.24 1011.53 1010.01 1008.88 1008.23 1008.09 1008.39 1009.01 1009.76 1010.50 1011.11 1011.52 1011.76 1011.86 1011.91 1012.00 1012.19 1012.51 1012.94 1013.44 1013.92 1014.34 1014.62 1014.77 1014.78 1014.72 1014.64 1014.60 1014.65 1014.81 1015.07 1015.40 1015.76 1016.10 1016.39 1016.60 1016.76 1016.87 1016.97 1017.10
1011.91 1013.44 1015.01 1016.39 1017.35 1017.70 1017.38 1016.41 1014.92 1013.13 1011.30 1009.68 1008.47 1007.78 1007.63 1007.95 1008.59 1009.39 1010.18 1010.83 1011.27 1011.51 1011.60 1011.62 1011.66 1011.80 1012.07 1012.46 1012.93 1013.41 1013.84 1014.17 1014.35 1014.42 1014.40 1014.35 1014.33 1014.38 1014.52 1014.76 1015.06 1015.39 1015.70 1015.97 1016.18 1016.34 1016.46 1016.59 1016.73
1012.09 1013.60 1015.14 1016.47 1017.37 1017.66 1017.27 1016.24 1014.71 1012.88 1011.03 1009.40 1008.19 1007.51 1007.37 1007.70 1008.36 1009.17 1009.97 1010.63 1011.09 1011.32 1011.40 1011.40 1011.40 1011.50 1011.72 1012.07 1012.50 1012.96 1013.39 1013.73 1013.95 1014.05 1014.06 1014.04 1014.04 1014.09 1014.22 1014.43 1014.71 1015.01 1015.30 1015.56 1015.77 1015.93 1016.07 1016.21 1016.38
1012.17 1013.56 1014.99 1016.20 1017.00 1017.22 1016.80 1015.78 1014.28 1012.52 1010.74 1009.19 1008.05 1007.41 1007.29 1007.61 1008.26 1009.05 1009.83 1010.48 1010.92 1011.16 1011.23 1011.22 1011.21 1011.29 1011.48 1011.79 1012.19 1012.63 1013.04 1013.37 1013.60 1013.72 1013.76 1013.77 1013.77 1013.83 1013.96 1014.15 1014.41 1014.69 1014.96 1015.21 1015.42 1015.60 1015.75 1015.91 1016.11
1012.16 1013.38 1014.63 1015.69 1016.36 1016.52 1016.10 1015.13 1013.74 1012.11 1010.49 1009.07 1008.02 1007.44 1007.33 1007.63 1008.22 1008.96 1009.68 1010.28 1010.70 1010.93 1011.02 1011.03 1011.04 1011.13 1011.32 1011.62 1012.00 1012.41 1012.81 1013.13 1013.36 1013.49 1013.54 1013.56 1013.59 1013.65 1013.78 1013.97 1014.21 1014.48 1014.74 1014.99 1015.20 1015.38 1015.55 1015.73 1015.94
Thickness
5845 5841 5834 5818 5792 5764 5755 5766 5774 5772 5772 5779 5781 5775 5764 5756 5750 5745 5763 5770 5770 5768 5767 5766 5765 5764 5764 5763 5762 5762 5761 5761 5761 5761 5761 5761 5760 5759 5760 5759 5759 5758 5757 5756 5756 5754 5754 5753 5752
5848 5842 5829 5808 5772 5746 5753 5770 5772 5776 5781 5785 5783 5776 5766 5761 5765 5764 5766 5770 5770 5767 5766 5764 5764 5763 5762 5761 5761 5760 5760 5760 5759 5759 5760 5760 5759 5759 5758 5758 5757 5756 5756 5755 5754 5753 5752 5752 5751
5850 5843 5818 5793 5768 5754 5761 5775 5777 5784 5790 5787 5779 5776 5768 5763 5767 5767 5771 5771 5768 5766 5764 5763 5762 5761 5760 5760 5760 5759 5758 5758 5758 5758 5758 5758 5757 5757 5757 5756 5755 5755 5754 5754 5753 5752 5751 5750 5750
5847 5831 5812 5785 5772 5778 5780 5783 5786 5784 5787 5787 5780 5770 5772 5777 5775 5774 5774 5772 5767 5765 5763 5762 5761 5759 5758 5758 5758 5757 5757 5757 5756 5756 5756 5756 5756 5756 5755 5755 5754 5753 5753 5752 5752 5751 5750 5749 5748
5844 5819 5792 5774 5778 5788 5793 5794 5791 5784 5782 5783 5779 5766 5765 5777 5781 5778 5774 5771 5766 5764 5762 5760 5759 5758 5757 5756 5756 5756 5755 5755 5755 5754 5754 5754 5754 5754 5754 5753 5752 5752 5751 5750 5750 5750 5749 5748 5748
5829 5810 5778 5768 5780 5791 5796 5798 5792 5785 5783 5783 5778 5767 5765 5777 5777 5775 5773 5769 5766 5763 5761 5760 5758 5757 5756 5755 5754 5754 5754 5754 5753 5752 5752 5752 5752 5752 5752 5752 5751 5750 5749 5749 5749 5748 5748 5747 5747
5822 5801 5782 5780 5781 5787 5796 5801 5792 5786 5783 5784 5783 5766 5766 5773 5777 5775 5772 5768 5765 5762 5760 5759 5757 5756 5755 5754 5753 5753 5752 5752 5752 5752 5751 5751 5751 5750 5750 5750 5750 5749 5748 5747 5747 5747 5746 5746 5745
5835 5808 5790 5785 5784 5789 5802 5803 5801 5794 5789 5796 5791 5770 5766 5775 5778 5775 5770 5766 5764 5761 5759 5758 5757 5755 5754 5752 5752 5751 5751 5751 5751 5750 5750 5750 5750 5749 5749 5749 5748 5748 5747 5746 5746 5746 5745 5744 5744
5842 5803 5786 5791 5792 5797 5806 5802 5805 5809 5799 5796 5795 5788 5786 5784 5779 5772 5766 5763 5761 5760 5759 5758 5756 5754 5753 5752 5751 5750 5750 5750 5749 5749 5749 5748 5748 5748 5748 5748 5747 5747 5746 5746 5745 5744 5744 5744 5743
5831 5800 5804 5815 5816 5811 5811 5808 5806 5801 5792 5790 5790 5791 5791 5785 5777 5770 5765 5761 5759 5759 5758 5758 5756 5754 5753 5752 5750 5749 5749 5748 5747 5747 5747 5747 5747 5746 5746 5747 5746 5746 5746 5745 5744 5744 5743 5743 5742
5834 5818 5824 5828 5829 5824 5815 5811 5812 5799 5788 5792 5790 5788 5788 5783 5777 5772 5769 5766 5764 5762 5760 5759 5757 5755 5753 5751 5750 5749 5748 5747 5746 5746 5745 5746 5745 5745 5745 5745 5745 5745 5744 5744 5743 5742 5742 5742 5741
5836 5834 5836 5833 5834 5827 5818 5815 5809 5805 5805 5812 5806 5799 5792 5784 5779 5776 5772 5769 5767 5764 5762 5761 5759 5756 5754 5752 5750 5749 5748 5746 5745 5745 5745 5745 5744 5744 5744 5743 5743 5743 5743 5742 5742 5741 5741 5741 5741
5836 5836 5839 5838 5834 5830 5824 5817 5813 5811 5817 5816 5808 5800 5793 5788 5784 5781 5778 5774 5770 5767 5765 5763 5761 5758 5756 5753 5751 5750 5748 5747 5746 5745 5745 5744 5743 5743 5743 5743 5742 5742 5742 5741 5741 5740 5740 5740 5741
5840 5838 5836 5835 5832 5830 5820 5817 5815 5813 5819 5813 5806 5799 5796 5792 5788 5783 5779 5775 5773 5771 5768 5766 5764 5761 5758 5755 5753 5751 5749 5748 5746 5745 5745 5744 5744 5743 5742 5742 5742 5741 5741 5741 5740 5740 5740 5740 5740
5842 5829 5827 5829 5830 5827 5821 5807 5813 5820 5818 5810 5806 5802 5798 5796 5793 5788 5786 5781 5778 5775 5772 5769 5767 5764 5761 5758 5755 5753 5751 5749 5747 5746 5745 5745 5744 5743 5742 5742 5741 5741 5741 5741 5740 5740 5740 5740 5740
5830 5815 5804 5821 5827 5826 5814 5795 5817 5824 5817 5808 5806 5804 5800 5798 5796 5795 5791 5787 5783 5779 5775 5772 5771 5766 5763 5760 5758 5755 5752 5751 5749 5748 5746 5745 5744 5744 5743 5742 5742 5741 5741 5740 5740 5739 5739 5738 5738
5805 5795 5798 5812 5825 5823 5813 5802 5819 5824 5818 5809 5808 5806 5802 5799 5798 5797 5795 5791 5787 5783 5778 5774 5772 5768 5764 5762 5759 5756 5754 5752 5751 5749 5748 5747 5746 5745 5744 5743 5742 5742 5741 5740 5740 5739 5738 5737 5737
5794 5796 5800 5804 5820 5818 5809 5809 5818 5823 5819 5813 5810 5807 5803 5801 5802 5802 5799 5795 5791 5786 5782 5777 5774 5770 5766 5763 5759 5756 5754 5753 5751 5750 5749 5748 5747 5746 5744 5743 5743 5742 5741 5740 5739 5738 5737 5736 5736
5812 5804 5800 5809 5824 5815 5808 5810 5815 5820 5818 5814 5811 5809 5806 5806 5808 5805 5801 5798 5793 5788 5783 5779 5775 5772 5768 5764 5759 5756 5754 5753 5752 5751 5750 5749 5748 5747 5745 5745 5744 5742 5741 5740 5739 5738 5736 5735 5735
5811 5803 5803 5812 5824 5817 5807 5808 5816 5820 5820 5821 5818 5814 5812 5809 5807 5805 5802 5799 5795 5790 5786 5782 5778 5775 5771 5768 5764 5761 5758 5756 5755 5753 5752 5751 5749 5748 5747 5746 5744 5743 5742 5740 5739 5738 5735 5734 5734
5808 5805 5806 5806 5813 5813 5807 5800 5809 5818 5823 5823 5823 5821 5818 5815 5810 5807 5804 5801 5797 5793 5790 5787 5782 5778 5775 5771 5766 5763 5759 5756 5754 5753 5752 5752 5750 5749 5748 5747 5746 5744 5743 5741 5740 5739 5736 5733 5733
5800 5818 5815 5809 5796 5783 5795 5773 5798 5808 5812 5818 5822 5822 5821 5820 5817 5811 5808 5803 5801 5799 5795 5791 5786 5781 5777 5773 5768 5763 5758 5755 5755 5755 5753 5753 5752 5751 5750 5748 5747 5745 5744 5742 5741 5741 5739 5736 5732
5812 5819 5812 5804 5790 5778 5783 5772 5785 5803 5804 5814 5823 5826 5827 5825 5822 5817 5814 5810 5807 5803 5798 5794 5789 5784 5780 5776 5771 5766 5762 5760 5758 5756 5754 5753 5752 5751 5750 5749 5747 5746 5744 5743 5742 5741 5739 5738 5735
5816 5804 5793 5780 5772 5759 5775 5768 5775 5794 5809 5819 5827 5830 5830 5828 5825 5821 5818 5813 5808 5805 5801 5796 5790 5786 5783 5778 5774 5770 5765 5762 5758 5755 5753 5753 5752 5751 5750 5749 5747 5746 5745 5743 5742 5741 5740 5738 5736
5805 5777 5752 5752 5742 5748 5771 5768 5777 5812 5823 5827 5830 5832 5833 5831 5827 5821 5817 5813 5809 5806 5802 5798 5792 5787 5785 5780 5776 5773 5769 5765 5761 5758 5755 5753 5751 5750 5750 5749 5747 5746 5745 5744 5742 5741 5739 5737 5736
5793 5780 5750 5739 5736 5746 5763 5763 5791 5822 5830 5834 5835 5834 5833 5830 5828 5824 5821 5817 5813 5808 5804 5799 5795 5790 5787 5782 5778 5775 5771 5768 5764 5762 5759 5756 5754 5752 5751 5749 5748 5746 5745 5744 5742 5740 5738 5737 5735
5784 5775 5776 5751 5745 5741 5750 5769 5797 5822 5824 5828 5830 5830 5828 5828 5827 5825 5822 5818 5814 5810 5806 5802 5797 5793 5789 5785 5781 5777 5773 5770 5767 5764 5761 5758 5756 5754 5752 5750 5748 5746 5745 5743 5741 5739 5737 5736 5734
5794 5775 5756 5743 5729 5729 5748 5760 5772 5802 5810 5818 5822 5823 5825 5826 5825 5824 5821 5819 5816 5812 5808 5804 5799 5794 5791 5787 5783 5779 5775 5772 5769 5765 5762 5760 5757 5756 5753 5750 5748 5745 5744 5742 5740 5738 5736 5735 5733
5779 5769 5752 5738 5740 5728 5730 5752 5794 5801 5809 5812 5818 5823 5824 5824 5824 5823 5820 5818 5816 5812 5808 5803 5799 5794 5791 5788 5784 5780 5777 5773 5770 5766 5764 5762 5759 5756 5753 5750 5748 5745 5743 5741 5739 5737 5735 5733 5731
5784 5772 5756 5746 5738 5732 5733 5753 5804 5805 5809 5813 5817 5821 5823 5823 5823 5821 5819 5816 5812 5809 5806 5802 5799 5796 5793 5790 5785 5781 5778 5773 5770 5767 5765 5763 5760 5757 5754 5751 5748 5745 5742 5740 5738 5736 5734 5732 5729